Big Delta, AK

9:27 AM AKDT on May 23, 2017 (GMT -0800)
Allen Army Air Field

Weather History for PABI - May, 2014

Change the Weather History Date:

Sunday, May 4, 2014

  Actual Average Record
Temperature  
Mean Temperature 54 °F -  
Max Temperature 64 °F 47 °F 64 °F (2004)
Min Temperature 43 °F 29 °F 18 °F (2002)
Degree Days  
Heating Degree Days 10    
Growing Degree Days 4 (Base 50)    
Moisture  
Dew Point 34 °F    
Average Humidity 44    
Maximum Humidity 74    
Minimum Humidity 31    
Precipitation  
Precipitation 0.00 in - - ()
Sea Level Pressure  
Sea Level Pressure 29.89 in    
Wind  
Wind Speed 13 mph (West)    
Max Wind Speed 18 mph    
Max Gust Speed 25 mph    
Visibility 10 miles    
Events      
Averages and records for this station are not official NWS values.
T = Trace of Precipitation, MM = Missing Value Source: NWS Daily Summary

Daily Weather History Graph

Daily Weather History Graph

Search for Another Location

Airport or City:

Trip Planner

Search our weather history database for the weather conditions in past years. The results will help you decide how hot, cold, wet, or windy it might be!

Date:

Astronomy

May. 04, 2014 Rise Set
Actual Time 5:05 AM AKDT 10:16 PM AKDT
Civil Twilight 3:52 AM AKDT 11:30 PM AKDT
Nautical Twilight 2:12 AM AKDT 1:07 AM AKDT
Astronomical Twilight Sun does not set Sun does not set
Moon 9:32 AM AKDT (5/4) 2:34 AM AKDT (5/4)
Length of Visible Light 19h 38m
Length of Day
17h 10m
Waxing Crescent, 29% of the Moon is Illuminated
May 4
Waxing Crescent
May 6
First Quarter
May 14
Full
May 21
Last Quarter
May 28
New

Hourly Weather History & Observations

Time (AKDT) Temp. Windchill Dew Point Humidity Pressure Visibility Wind Dir Wind Speed Gust Speed Precip Events Conditions
12:53 AM 54.0 °F - 30.9 °F 41% 29.90 in 10.0 mi SW 13.8 mph - N/A   Overcast
1:53 AM 53.1 °F - 30.0 °F 41% 29.90 in 10.0 mi SW 17.3 mph - N/A   Overcast
2:53 AM 51.1 °F - 30.0 °F 44% 29.90 in 10.0 mi SW 17.3 mph - N/A   Overcast
3:53 AM 51.1 °F - 30.0 °F 44% 29.90 in 10.0 mi SW 15.0 mph - N/A   Overcast
4:53 AM 50.0 °F - 30.0 °F 46% 29.90 in 10.0 mi SW 13.8 mph - N/A   Overcast
5:53 AM 50.0 °F - 30.0 °F 46% 29.91 in 10.0 mi SW 9.2 mph - 0.00 in   Overcast
6:53 AM 50.0 °F - 30.9 °F 48% 29.91 in 10.0 mi SW 12.7 mph - N/A   Mostly Cloudy
7:53 AM 51.1 °F - 30.9 °F 46% 29.91 in 10.0 mi SW 12.7 mph - N/A   Overcast
8:53 AM 53.1 °F - 32.0 °F 45% 29.93 in 10.0 mi SW 9.2 mph - N/A   Overcast
9:53 AM 55.9 °F - 35.1 °F 45% 29.92 in 10.0 mi WSW 6.9 mph - 0.00 in   Overcast
10:53 AM 59.0 °F - 35.1 °F 41% 29.91 in 10.0 mi Variable 3.5 mph - N/A   Overcast
11:53 AM 60.1 °F - 34.0 °F 38% 29.89 in 10.0 mi Calm Calm - N/A   Mostly Cloudy
12:53 PM 62.1 °F - 32.0 °F 32% 29.88 in 10.0 mi NNW 6.9 mph - N/A   Mostly Cloudy
1:53 PM 63.0 °F - 32.0 °F 31% 29.86 in 10.0 mi Calm Calm - N/A   Mostly Cloudy
2:53 PM 63.0 °F - 33.1 °F 33% 29.84 in 10.0 mi Variable 3.5 mph - N/A   Mostly Cloudy
3:53 PM 60.1 °F - 39.0 °F 46% 29.85 in 10.0 mi NNW 15.0 mph - N/A   Mostly Cloudy
4:53 PM 60.1 °F - 37.0 °F 42% 29.84 in 10.0 mi NNW 11.5 mph - 0.00 in   Mostly Cloudy
5:53 PM 62.1 °F - 36.0 °F 38% 29.84 in 10.0 mi NW 12.7 mph - N/A   Mostly Cloudy
6:53 PM 61.0 °F - 36.0 °F 39% 29.85 in 10.0 mi NW 18.4 mph - N/A   Mostly Cloudy
7:53 PM 55.9 °F - 34.0 °F 44% 29.88 in 10.0 mi NW 16.1 mph 25.3 mph N/A   Mostly Cloudy
8:53 PM 52.0 °F - 36.0 °F 54% 29.90 in 10.0 mi WNW 15.0 mph 24.2 mph N/A   Mostly Cloudy
9:53 PM 48.0 °F - 35.1 °F 61% 29.93 in 10.0 mi WNW 17.3 mph 23.0 mph N/A   Mostly Cloudy
10:53 PM 45.0 °F 37.9 °F 35.1 °F 68% 29.94 in 10.0 mi WNW 16.1 mph - N/A   Mostly Cloudy
11:53 PM 43.0 °F 36.8 °F 35.1 °F 74% 29.95 in 10.0 mi WNW 11.5 mph - N/A   Partly Cloudy